Lanai City, HI

6:44 AM HST on July 20, 2017 (GMT -1000)
Lanai City

Weather History for PHNY - September, 2013

Change the Weather History Date:

Monday, September 23, 2013

  Actual Average Record
Temperature  
Mean Temperature 76 °F -  
Max Temperature 84 °F 83 °F 85 °F (1990)
Min Temperature 68 °F 65 °F 59 °F (1950)
Cooling Degree Days 11    
Growing Degree Days 26 (Base 50)    
Moisture  
Dew Point 66 °F    
Average Humidity 69    
Maximum Humidity 90    
Minimum Humidity 53    
Precipitation  
Precipitation 0.00 in - - ()
Sea Level Pressure  
Sea Level Pressure 29.99 in    
Wind  
Wind Speed 10 mph (NE)    
Max Wind Speed 22 mph    
Max Gust Speed 30 mph    
Visibility 10 miles    
Events      
Averages and records for this station are not official NWS values.
T = Trace of Precipitation, MM = Missing Value Source: NWS Daily Summary

Daily Weather History Graph

Daily Weather History Graph

Search for Another Location

Airport or City:

Trip Planner

Search our weather history database for the weather conditions in past years. The results will help you decide how hot, cold, wet, or windy it might be!

Date:

Astronomy

Sep. 23, 2013 Rise Set
Actual Time 6:16 AM HST 6:22 PM HST
Civil Twilight 5:54 AM HST 6:44 PM HST
Nautical Twilight 5:29 AM HST 7:10 PM HST
Astronomical Twilight 5:03 AM HST 7:36 PM HST
Moon 9:39 PM HST (9/23) 10:11 AM HST (9/23)
Length of Visible Light 12h 49m
Length of Day
12h 05m
Waning Gibbous, 79% of the Moon is Illuminated
Sep 23
Waning Gibbous
Sep 26
Last Quarter
Oct 4
New
Oct 11
First Quarter
Oct 18
Full

Hourly Weather History & Observations

Time (HST) Temp. Heat Index Dew Point Humidity Pressure Visibility Wind Dir Wind Speed Gust Speed Precip Events Conditions
12:56 AM 70.0 °F - 63.9 °F 81% 29.99 in 10.0 mi ENE 9.2 mph - N/A   Clear
1:56 AM 68.9 °F - 64.9 °F 87% 29.98 in 10.0 mi ENE 6.9 mph - N/A   Clear
2:56 AM 70.0 °F - 66.9 °F 90% 29.98 in 10.0 mi NE 8.1 mph - N/A   Clear
3:56 AM 68.9 °F - 65.8 °F 90% 29.97 in 10.0 mi NE 11.5 mph - N/A   Clear
4:56 AM 68.9 °F - 64.9 °F 87% 29.98 in 10.0 mi East 6.9 mph - N/A   Clear
5:56 AM 70.0 °F - 66.9 °F 90% 29.99 in 10.0 mi NE 8.1 mph - N/A   Clear
6:56 AM 70.0 °F - 65.8 °F 87% 30.00 in 10.0 mi ENE 8.1 mph - N/A   Clear
7:56 AM 77.0 °F - 65.8 °F 68% 30.00 in 10.0 mi NNE 8.1 mph - N/A   Clear
8:56 AM 81.9 °F 83.9 °F 65.8 °F 58% 30.01 in 10.0 mi Variable 6.9 mph - N/A   Partly Cloudy
9:38 AM 80.6 °F 82.3 °F 64.4 °F 58% 30.08 in 10.0 mi SSE 9.2 mph - N/A   Mostly Cloudy
9:56 AM 79.9 °F - 64.9 °F 60% 30.01 in 10.0 mi NE 4.6 mph - N/A   Mostly Cloudy
10:11 AM 78.8 °F - 64.4 °F 61% 30.08 in 10.0 mi Variable 4.6 mph - N/A   Overcast
10:43 AM 78.8 °F - 66.2 °F 65% 30.08 in 10.0 mi SE 8.1 mph - N/A   Mostly Cloudy
10:56 AM 82.4 °F 85.4 °F 68.0 °F 62% 30.07 in 10.0 mi SSE 10.4 mph - N/A   Mostly Cloudy
11:03 AM 80.6 °F 83.2 °F 68.0 °F 65% 30.07 in 10.0 mi SSE 11.5 mph - N/A   Mostly Cloudy
11:39 AM 84.2 °F 86.6 °F 66.2 °F 55% 30.06 in 10.0 mi Variable 5.8 mph - N/A   Scattered Clouds
11:56 AM 84.9 °F 87.1 °F 65.8 °F 53% 29.98 in 10.0 mi Variable 5.8 mph - N/A   Mostly Cloudy
12:35 PM 82.4 °F 84.6 °F 66.2 °F 58% 30.03 in 10.0 mi West 8.1 mph - N/A   Mostly Cloudy
12:56 PM 82.9 °F 85.8 °F 68.0 °F 60% 29.96 in 10.0 mi NNW 9.2 mph - N/A   Overcast
1:06 PM 80.6 °F 83.2 °F 68.0 °F 65% 30.02 in 10.0 mi NW 8.1 mph - N/A   Overcast
1:56 PM 84.9 °F 87.1 °F 65.8 °F 53% 29.94 in 10.0 mi NE 12.7 mph - N/A   Partly Cloudy
2:56 PM 83.8 °F 86.5 °F 66.9 °F 57% 29.92 in 10.0 mi NE 20.7 mph - N/A   Clear
3:56 PM 81.9 °F 84.2 °F 66.9 °F 60% 29.92 in 10.0 mi NNE 21.9 mph - N/A   Clear
4:56 PM 79.9 °F - 65.8 °F 62% 29.93 in 10.0 mi NE 18.4 mph - N/A   Clear
5:56 PM 79.0 °F - 63.9 °F 60% 29.94 in 10.0 mi NE 17.3 mph - N/A   Mostly Cloudy
6:56 PM 73.9 °F - 64.9 °F 73% 29.96 in 10.0 mi NE 16.1 mph - N/A   Overcast
7:56 PM 72.9 °F - 64.9 °F 76% 29.97 in 10.0 mi ENE 13.8 mph - N/A   Clear
8:56 PM 72.9 °F - 65.8 °F 79% 29.96 in 10.0 mi NE 19.6 mph 29.9 mph N/A   Clear
9:56 PM 72.9 °F - 65.8 °F 79% 29.97 in 10.0 mi NE 15.0 mph - N/A   Partly Cloudy
10:56 PM 72.9 °F - 64.9 °F 76% 29.96 in 10.0 mi ENE 8.1 mph - N/A   Partly Cloudy
11:56 PM 72.0 °F - 64.9 °F 78% 29.95 in - NE 11.5 mph - N/A   Clear